Location: Unspecified
(0.0000°N, 0.0000°E)
Time: 00:31:50
(UTC-04:00)

Envisat - Pass Details

Date: 25 September 2021
Orbit: 764 x 766 km, 98.2° (Epoch: 26 October)

Event Time Altitude Azimuth Distance (km) Brightness Sun altitude
Rises 23:34:35 0° 52° (NE) 3,216 6.9 -34.2°
Reaches altitude 10° 23:38:47 10° 86° (E) 2,294 6.3 -33.1°
Maximum altitude 23:40:11 11° 103° (ESE) 2,219 6.2 -32.8°
Drops below altitude 10° 23:41:36 10° 119° (ESE) 2,297 6.1 -32.4°
Sets 23:45:47 0° 153° (SSE) 3,226 6.6 -31.4°
